Key West High School FL US WEATHERSTEM current weather conditions

sailwx.info

Wind from 233 at 0 knots gusting 1

Air temperature 29.2° C
Dewpoint 25.4° C

Last reported at 2020-Sep-26 00:00 UTC.
Time now 2020-Sep-26 01:09 UTC

Location: N 24°33' W 081°47'.
View on Google Maps.

See reports from other nearby stations

  
Tides and Currents Weather Stations Pressure Air Temp Water Temp Dewpoint Dewpoint Depression Visibility Wind Speed Wind Dir Waves Ship Positions
date/time (UTC)wind fromknots sea level pressurealtimeterstation pressurevisibilityair tempwater tempwave heightnotes
2020-Sep-26 00:00 233 0 gusting 1 29.2
2020-Sep-25 23:50 233 0 gusting 1 29.3
2020-Sep-25 23:40 233 0 gusting 2 29.4
2020-Sep-25 23:30 231 1 gusting 2 29.6
2020-Sep-25 23:20 29.7
2020-Sep-25 23:10 225 1 gusting 3 29.9
2020-Sep-25 23:00 219 2 gusting 3 29.9
2020-Sep-25 22:50 29.9
2020-Sep-25 22:40 256 2 gusting 2 29.8
2020-Sep-25 22:30 256 0 gusting 3 29.7
2020-Sep-25 22:20 255 1 gusting 2 29.7
2020-Sep-25 22:00 291 0 gusting 4 29.8
2020-Sep-25 21:50 300 0 gusting 5 29.9
2020-Sep-25 21:40 277 1 gusting 6 30.1
2020-Sep-25 21:30 245 3 gusting 6 30.2
2020-Sep-25 21:20 215 1 gusting 6 30.3
2020-Sep-25 21:00 248 6 gusting 8 30.7
2020-Sep-25 20:50 265 1 gusting 6 30.9
2020-Sep-25 20:40 193 4 gusting 9 31.1
2020-Sep-25 20:30 258 3 gusting 7 31.5
2020-Sep-25 20:10 269 2 gusting 8 31.7
2020-Sep-25 20:00 256 3 gusting 8 31.9
2020-Sep-25 19:30 238 6 gusting 10 32.3
2020-Sep-25 19:20 229 6 gusting 10 32.3
2020-Sep-25 19:10 219 3 gusting 9 32.4
2020-Sep-25 19:00 224 4 gusting 11 32.2
2020-Sep-25 18:50 240 5 gusting 11 32.4
2020-Sep-25 18:30 265 6 gusting 9 32.4
2020-Sep-25 18:20 231 2 gusting 10 32.2
2020-Sep-25 18:10 196 6 gusting 12 32.0
2020-Sep-25 18:00 238 8 gusting 12 32.2
2020-Sep-25 17:50 238 11 gusting 13 31.8
2020-Sep-25 17:40 202 2 gusting 13 31.7
2020-Sep-25 17:30 255 6 gusting 13 31.9
2020-Sep-25 17:10 229 7 gusting 12 31.8
2020-Sep-25 17:00 236 8 gusting 13 31.8
2020-Sep-25 16:40 262 6 gusting 12 31.8
2020-Sep-25 16:30 243 8 gusting 11 31.9
2020-Sep-25 16:20 245 3 gusting 12 31.8
2020-Sep-25 16:10 230 7 gusting 13 31.9
2020-Sep-25 16:00 279 6 gusting 11 31.9
2020-Sep-25 15:40 242 4 gusting 8 31.8
2020-Sep-25 15:30 250 5 gusting 11 31.4
2020-Sep-25 15:10 267 6 gusting 9 31.4
2020-Sep-25 14:50 265 5 gusting 9 31.3
2020-Sep-25 14:30 276 4 gusting 10 30.9
2020-Sep-25 14:20 218 2 gusting 11 30.8
2020-Sep-25 14:10 221 5 gusting 11 30.7
2020-Sep-25 14:00 287 6 gusting 10 30.8
2020-Sep-25 13:50 247 7 gusting 8 30.5
2020-Sep-25 13:40 246 7 gusting 11 30.2
2020-Sep-25 13:20 239 9 gusting 11 29.8
2020-Sep-25 13:00 238 7 gusting 11 29.6
2020-Sep-25 12:50 219 6 gusting 10 29.4
2020-Sep-25 12:40 238 6 gusting 12 29.3
2020-Sep-25 12:30 243 6 gusting 11 29.1
2020-Sep-25 12:20 262 6 gusting 9 29.0
2020-Sep-25 12:00 238 3 gusting 12 28.7
2020-Sep-25 11:50 227 6 gusting 10 28.6
2020-Sep-25 11:40 255 6 gusting 13 28.6
2020-Sep-25 11:30 236 5 gusting 11 28.7
2020-Sep-25 11:20 226 6 gusting 13 28.6
2020-Sep-25 11:10 258 6 gusting 11 28.7
2020-Sep-25 11:00 184 6 gusting 10 28.7
2020-Sep-25 10:50 252 3 gusting 13 28.7
2020-Sep-25 10:40 225 6 gusting 11 28.8
2020-Sep-25 10:30 221 3 gusting 11 28.8
2020-Sep-25 10:10 225 9 gusting 10 28.8
2020-Sep-25 09:50 223 7 gusting 12 28.9
2020-Sep-25 09:40 202 6 gusting 11 28.7
2020-Sep-25 09:30 245 7 gusting 11 28.7
2020-Sep-25 09:20 232 10 gusting 11 28.7
2020-Sep-25 09:10 227 7 gusting 11 28.7
2020-Sep-25 08:50 224 10 gusting 12 28.8
2020-Sep-25 08:40 221 5 gusting 13 28.8
2020-Sep-25 08:30 216 7 gusting 13 28.8
2020-Sep-25 08:10 246 7 gusting 12 28.7
2020-Sep-25 08:00 239 8 gusting 11 28.8
2020-Sep-25 07:50 231 6 gusting 11 28.9
2020-Sep-25 07:40 157 3 gusting 9 28.9
2020-Sep-25 07:30 226 3 gusting 8 28.8
2020-Sep-25 07:20 179 1 gusting 11 28.8
2020-Sep-25 07:10 179 2 gusting 13 28.9
2020-Sep-25 06:50 169 7 gusting 12 28.9
2020-Sep-25 06:40 215 4 gusting 13 28.9
2020-Sep-25 06:30 212 5 gusting 13 28.9
2020-Sep-25 06:20 213 7 gusting 12 28.8
2020-Sep-25 06:10 214 3 gusting 10 28.8
2020-Sep-25 06:00 166 7 gusting 12 28.8
2020-Sep-25 05:50 181 5 gusting 11 28.8
2020-Sep-25 05:40 28.8
2020-Sep-25 05:20 186 3 gusting 10 28.8
2020-Sep-25 05:10 169 3 gusting 13 28.8
2020-Sep-25 05:00 154 4 gusting 9 28.7
2020-Sep-25 04:50 164 7 gusting 10 28.8
2020-Sep-25 04:40 144 6 gusting 11 28.8
2020-Sep-25 04:20 216 7 gusting 13 28.9
2020-Sep-25 04:10 213 7 gusting 13 28.8
2020-Sep-25 03:50 172 1 gusting 7 28.9
2020-Sep-25 03:40 178 2 gusting 7 28.9
2020-Sep-25 03:30 176 4 gusting 7 28.9
2020-Sep-25 03:10 188 4 gusting 7 28.8
2020-Sep-25 03:00 179 0 gusting 6 28.8
2020-Sep-25 02:50 163 4 gusting 6 28.8
2020-Sep-25 02:30 160 2 gusting 6 28.7
2020-Sep-25 02:20 184 1 gusting 5 28.8
2020-Sep-25 02:10 160 0 gusting 6 28.7
2020-Sep-25 02:00 155 3 gusting 6 28.8
2020-Sep-25 01:40 171 3 gusting 6 28.8
2020-Sep-25 01:30 213 2 gusting 6 28.8
2020-Sep-24 18:50 131 7 gusting 8 30.5
2020-Sep-24 18:40 133 6 gusting 10 30.4
2020-Sep-24 18:30 108 3 gusting 9 30.9
2020-Sep-24 18:20 110 3 gusting 10 31.3
2020-Sep-24 18:10 074 5 gusting 10 31.2
2020-Sep-24 18:00 153 5 gusting 11 31.1
2020-Sep-24 17:50 104 6 gusting 11 30.9
2020-Sep-24 17:40 141 7 gusting 11 30.9
2020-Sep-24 17:20 131 7 gusting 11 30.2
2020-Sep-24 17:10 101 6 gusting 12 30.2
2020-Sep-24 17:00 122 8 gusting 12 30.9
2020-Sep-24 16:40 118 2 gusting 12 30.6
2020-Sep-24 16:30 135 6 gusting 12 30.7
2020-Sep-24 16:20 156 7 gusting 13 30.7
2020-Sep-24 16:00 117 12 gusting 12 30.6
2020-Sep-24 15:50 139 7 gusting 13 30.1
2020-Sep-24 15:20 139 10 gusting 13 29.9
2020-Sep-24 15:10 126 10 gusting 13 30.0
2020-Sep-24 15:00 128 5 gusting 13 29.9
2020-Sep-24 14:50 129 11 gusting 13 29.8
2020-Sep-24 14:40 151 6 gusting 13 29.8
2020-Sep-24 14:20 136 9 gusting 14 29.3
2020-Sep-24 14:10 113 9 gusting 13 29.1
2020-Sep-24 14:00 141 7 gusting 15 28.9
2020-Sep-24 13:50 136 9 gusting 15 28.7
2020-Sep-24 13:40 111 6 gusting 16 28.4
2020-Sep-24 13:30 123 11 gusting 15 28.1
2020-Sep-24 13:10 135 11 gusting 14 28.3
2020-Sep-24 12:50 117 6 gusting 14 28.2
2020-Sep-24 12:40 158 9 gusting 14 27.8
2020-Sep-24 12:30 136 13 gusting 15 27.6
2020-Sep-24 12:10 123 15 gusting 16 28.2
2020-Sep-24 12:00 139 9 gusting 15 27.8
2020-Sep-24 11:50 138 6 gusting 13 27.7
2020-Sep-24 11:40 159 10 gusting 16 27.9
2020-Sep-24 11:30 133 10 gusting 14 28.3
2020-Sep-24 11:10 128 11 gusting 15 28.3
2020-Sep-24 11:00 125 7 gusting 14 28.1
2020-Sep-24 10:50 134 9 gusting 13 28.1
2020-Sep-24 10:40 153 9 gusting 13 28.1
2020-Sep-24 10:30 134 10 gusting 13 28.1
2020-Sep-24 10:10 137 9 gusting 13 27.8
2020-Sep-24 10:00 135 6 gusting 13 27.7
2020-Sep-24 09:50 139 7 gusting 13 27.6
2020-Sep-24 09:40 186 5 gusting 13 27.7
2020-Sep-24 09:30 193 6 gusting 14 27.8
2020-Sep-24 09:10 127 9 gusting 15 27.6
2020-Sep-24 09:00 152 10 gusting 18 27.2
2020-Sep-24 08:50 120 9 gusting 16 27.1
2020-Sep-24 08:30 131 18 gusting 19 26.9
2020-Sep-24 08:10 127 10 gusting 15 27.6
2020-Sep-24 08:00 129 9 gusting 19 27.9
2020-Sep-24 07:50 122 13 gusting 18 28.3
2020-Sep-24 07:40 108 6 gusting 13 28.4
2020-Sep-24 07:30 111 7 gusting 16 28.4
2020-Sep-24 07:10 110 7 gusting 13 28.3
2020-Sep-24 07:00 145 6 gusting 13 28.3
2020-Sep-24 06:50 110 9 gusting 14 28.3
2020-Sep-24 06:40 119 6 gusting 13 28.3
2020-Sep-24 06:30 122 6 gusting 13 28.3
2020-Sep-24 06:10 117 5 gusting 13 28.3
2020-Sep-24 06:00 098 13 gusting 13 28.2
2020-Sep-24 05:50 105 5 gusting 12 28.2
2020-Sep-24 05:40 126 10 gusting 12 28.1
2020-Sep-24 05:30 125 9 gusting 13 28.0
2020-Sep-24 05:10 139 13 gusting 14 27.9
2020-Sep-24 05:00 115 13 gusting 14 27.8
2020-Sep-24 04:40 100 5 gusting 9 27.8
2020-Sep-24 04:30 096 5 gusting 10 27.8
2020-Sep-24 04:10 109 5 gusting 11 27.9
2020-Sep-24 04:00 117 6 gusting 12 27.9
2020-Sep-24 03:50 105 4 gusting 11 27.9
2020-Sep-24 03:40 067 3 gusting 9 27.9
2020-Sep-24 03:30 077 8 gusting 12 27.9
2020-Sep-24 03:10 058 7 gusting 10 28.0
2020-Sep-24 03:00 065 5 gusting 10 28.0
2020-Sep-24 02:50 092 0 gusting 11 28.1
2020-Sep-24 02:40 065 4 gusting 10 28.1
2020-Sep-24 02:30 089 5 gusting 12 28.2
2020-Sep-24 02:20 091 4 gusting 11 28.3
2020-Sep-24 02:10 068 5 gusting 12 28.4
2020-Sep-24 02:00 082 5 gusting 13 28.3
2020-Sep-24 01:50 075 3 gusting 9 28.3
2020-Sep-24 01:30 025 4 gusting 12 28.2
2020-Sep-24 01:20 066 6 gusting 8 28.2
2020-Sep-24 01:10 065 0 gusting 11 28.3
2020-Sep-24 01:00 094 7 gusting 12 28.3